Regional Weather Roundup
Issued by NWS

Home | Current Version | Previous Version | Text Only | Print | Product List | Glossary Off
Versions: 1 2 3 4 5 6 7 8 9 10 11 12 13 14 15 16 17 18 19 20 21 22 23 24 25 26 27 28 29 30 31 32 33 34 35 36 37 38 39 40 41 42 43 44 45 46 47 48 49 50

000
ASUS43 KMKX 202321
RWRWI

WISCONSIN REGIONAL WEATHER ROUNDUP
NATIONAL WEATHER SERVICE MILWAUKEE/SULLIVAN WI
600 PM CDT THU JUL 20 2017

NOTE: "FAIR" INDICATES FEW OR NO CLOUDS BELOW 12,000 FEET WITH NO
SIGNIFICANT WEATHER AND/OR OBSTRUCTIONS TO VISIBILITY.

WIZ001-002-006>008-014>016-023>028-210000-
NORTHWEST WISCONSIN

CITY           SKY/WX    TMP DP  RH WIND       PRES   REMARKS
SUPERIOR ARPT  NOT AVBL
ASHLAND        SUNNY     83  64  52 W7        29.96F HX  84
HAYWARD        SUNNY     83  59  44 VRB6      29.99F HX  83
SIREN          SUNNY     85  62  46 W7        29.99F HX  85
CUMBERLAND     SUNNY     81  63  54 W9        30.01F HX  82
RICE LAKE      SUNNY     83  65  53 W8        30.02S HX  85
CHETEK         SUNNY     83  68  59 W8        30.00F HX  86
LADYSMITH      SUNNY     84  61  46 W9        30.02S HX  84
EAU CLAIRE     SUNNY     83  66  56 NW7       29.99S HX  85
MENOMONIE      MOSUNNY   84  67  55 W8        30.00F HX  86
NEW RICHMOND   SUNNY     83  62  48 W6        30.01F HX  84
OSCEOLA        SUNNY     85  64  48 SW7       30.02F HX  87
$$

WIZ003>005-009-010-017-018-210000-
NORTH CENTRAL WISCONSIN

CITY           SKY/WX    TMP DP  RH WIND       PRES   REMARKS
MANITOWISH WTR SUNNY     80  58  46 W8        30.00R HX  80
ARBOR VITAE    SUNNY     82  55  39 W8        29.99R HX  82
WOODRUFF       SUNNY     82  55  39 W8        29.99R HX  82
RHINELANDER    SUNNY     84  57  39 NW5       29.99S HX  83
EAGLE RIVER    SUNNY     82  53  37 NW9       29.99R HX  81
LAND O LAKES   SUNNY     81  50  34 NW7       30.01R HX  80
PHILLIPS       SUNNY     82  62  51 W3        30.00R HX  82
TOMAHAWK         N/A     82  57  42 W7        29.99S HX  82
MEDFORD        SUNNY     82  63  53 W10       30.01R HX  83
MERRILL        SUNNY     83  64  51 W5        29.99S HX  85
$$

WIZ029-030-035-036-043>047-210000-
CENTRAL WISCONSIN

CITY           SKY/WX    TMP DP  RH WIND       PRES   REMARKS
WAUSAU         SUNNY     85  61  44 W12       29.96S HX  85
MOSINEE        MOSUNNY   82  63  51 W10       29.99F HX  83
MARSHFIELD     SUNNY     82  63  52 W10       29.99S HX  83
STEVENS POINT  SUNNY     83  63  51 NW8       29.98S HX  84
WAUPACA        MOSUNNY   87  63  44 NW7       29.96S HX  88
WAUTOMA        CLOUDY    82  72  71 W6        29.97S HX  87
WISC RAPIDS    MOSUNNY   86  65  49 N9        29.99S HX  88
CAMP DOUGLAS   MOSUNNY   78  73  82 W5        29.98F HX  81
$$

WIZ011>013-019>022-031-037>040-048>050-210000-
NORTHEAST WISCONSIN

CITY           SKY/WX    TMP DP  RH WIND       PRES   REMARKS
ANTIGO         SUNNY     82  62  50 NW9       29.99S HX  82
SHAWANO        SUNNY     88  60  38 W6        29.94S HX  88
OCONTO         SUNNY     86  63  45 NW5       29.92S HX  87
STURGEON BAY     N/A     84  66  54 CALM      29.93S HX  86
GREEN BAY      SUNNY     86  70  58 W7        29.93S HX  90
MANITOWOC      CLOUDY    85  66  53 NW7       29.94S HX  87
APPLETON       MOSUNNY   84  61  45 NW10      29.94S HX  84
CLINTONVILLE   SUNNY     86  59  39 NW8       29.94S HX  85
OSHKOSH        MOSUNNY   83  69  62 W5        29.95S HX  86
$$

WIZ032>034-041-042-053>061-210000-
SOUTHWEST WISCONSIN

CITY           SKY/WX    TMP DP  RH WIND       PRES   REMARKS
LA CROSSE      MOSUNNY   85  72  65 NW9       29.97F HX  91
SPARTA         CLOUDY    81  72  74 N5        29.99F HX  85
VIROQUA        MOSUNNY   80  73  81 N5        30.00S HX  84
BOSCOBEL       CLOUDY    88  70  55 N3        29.96F HX  93
PRAIRIE DU CHI MOSUNNY   85  69  58 N3        29.96S HX  89
PLATTEVILLE    SUNNY     84  77  79 N3        29.99S HX  93
$$

WIZ056-057-062-063-064-067-068-210000-
SOUTH CENTRAL WISCONSIN

CITY           SKY/WX    TMP DP  RH WIND       PRES   REMARKS
REEDSBURG      CLOUDY    82  71  71 NW5       29.96F HX  86
BARABOO/DELLS  CLOUDY    82  68  62 NW3       29.97S HX  85
LONE ROCK      CLOUDY    85  71  63 NW3       29.96S HX  90
MINERAL POINT  SUNNY     86  73  66 N3        29.99F HX  93
MADISON        PTSUNNY   85  73  67 CALM      29.96S HX  91
MIDDLETON      MOSUNNY   84  73  70 CALM      29.97S HX  90
WATERTOWN      MOSUNNY   83  73  72 NW5       29.96S HX  89
MONROE         PTSUNNY   82  70  65 CALM      29.98S HX  86
JANESVILLE     NOT AVBL
$$

WIZ051-052-058>065-066-070>072-210000-
SOUTHEAST WISCONSIN

CITY           SKY/WX    TMP DP  RH WIND       PRES   REMARKS
MILWAUKEE      MOSUNNY   78  69  73 SE8       29.96R HX  80
WAUKESHA       MOSUNNY   82  68  61 NW10      29.98R HX  85
MILWAUKEE/TIMM SUNNY     82  66  57 SE6       29.96S HX  85
RACINE         SUNNY     79  70  74 SE7       29.97F HX  82
KENOSHA        SUNNY     79  69  71 E7        29.96F HX  81
FOND DU LAC    CLOUDY    84  67  56 NW10      29.95S HX  86
SHEBOYGAN      MOSUNNY   84  71  65 W7        29.94S HX  89
WEST BEND      SUNNY     82  70  65 NW6       29.95S HX  86
JUNEAU         MOSUNNY   82  71  70 CALM      29.97S HX  86
$$

LSZ147-162-210000-
LAKE SUPERIOR

STATION/POSITION TIME  TEMP    WIND        PRES    WAVE
                       AIR SEA DIR/SP/G            HT/PER
                 (UTC) (F)     (DEG/KT/KT) (MB)    (FT/S)
W MID LAKE BUOY  2250   57 48  230/ 10/ 12 1013.5F   1/ 3
DEVILS ISLAND    2300   73     230/ 15/ 17 1013.1F
PORT WING        2100   81     260/  7/ 11   N/A
SAXON HARBOR     2240   86      20/  1/  2 1013.9F
$$

LMZ867-665-643>646-210000-
LAKE MICHIGAN

STATION/POSITION TIME  TEMP    WIND        PRES    WAVE
                       AIR SEA DIR/SP/G            HT/PER
                 (UTC) (F)     (DEG/KT/KT) (MB)    (FT/S)
CHAMBERS ISLAND  2230   84     160/  3/  5 1012.2F
S GREEN BAY BUOY 2300   78 74  170/  4/  6 1013.1
N MID LAKE BUOY  2150   69 66  190/ 10/ 10 1013.2F   2/ 6
NORTHPORT PIER   2240   79     160/  5/  7 1012.2S
KEWAUNEE LAKESHO 2254   71     170/  8/  9 1013.3R
SHEBOYGAN LAKESH 2300   69     170/ 16/ 17 1013.3S
PORT WASHINGTON  2230   74     170/  5/  8 1014.9F
ATWATER BUOY     2209   70 70  170/ 10/ 12 1014.4F
MILWAUKEE LAKESH 2300   72     150/ 12/ 12   N/A
S MID LAKE BUOY  2250   73 72  130/  6/  6 1014.2F   2/ 5
KENOSHA   LAKESH 2300   76     180/  8/  9 1014.2
$$

TC  - TEMPERATURE IN CELSIUS
VSB - VISIBILITY IN STATUTE MILES
WCI - WIND CHILL INDEX
HX  - HEAT INDEX





USA.gov is the U.S. government's official web portal to all federal, state and local government web resources and services.